Date,TemperatureHighF,TemperatureAvgF,TemperatureLowF,DewpointHighF,DewpointAvgF,DewpointLowF,HumidityHigh,HumidityAvg,HumidityLow,PressureMaxIn,PressureMinIn,WindSpeedMaxMPH,WindSpeedAvgMPH,GustSpeedMaxMPH,PrecipitationSumIn
2013-1-1,18,8,-2,3,-2,-9,81,63,45,30.44,30.26,5,1,5,0.00
2013-1-2,30,21,9,24,13,1,81,71,57,30.25,30.11,12,3,12,0.00
2013-1-3,31,20,12,24,12,5,78,71,63,30.46,30.22,20,5,20,0.00
2013-1-4,36,25,13,22,16,7,79,69,51,30.40,30.22,14,2,14,0.00
2013-1-5,39,29,21,30,21,15,82,73,64,30.22,29.98,18,5,18,0.00
2013-1-6,29,22,14,17,13,6,73,69,59,30.39,30.16,22,5,22,0.00
2013-1-7,45,34,24,27,22,16,80,63,47,30.26,30.04,20,4,20,0.00
2013-1-8,47,36,27,31,26,21,88,70,51,30.12,29.88,20,4,20,0.00
2013-1-9,44,37,29,31,27,23,81,68,56,30.48,30.12,13,2,13,0.00
2013-1-10,43,36,32,33,27,21,85,70,42,30.43,29.76,14,4,14,0.00
2013-1-11,54,45,36,44,39,32,87,79,62,29.77,29.48,24,7,24,0.00
2013-1-12,52,24,14,39,12,2,78,61,55,30.19,29.55,22,8,22,0.00
2013-1-13,19,13,8,6,2,-2,68,61,55,30.42,30.13,20,6,20,0.00
2013-1-14,30,18,7,10,5,0,75,58,35,30.56,30.42,10,1,10,0.00
2013-1-15,36,24,14,12,9,6,74,54,33,30.46,30.11,14,2,14,0.00
2013-1-16,48,34,23,32,22,8,76,59,49,30.26,29.93,15,6,15,0.00
2013-1-17,36,26,17,23,14,7,77,61,38,30.54,30.25,4,0,4,0.00
2013-1-18,56,43,23,30,26,16,75,53,35,30.41,29.89,0,0,0,0.00
2013-1-19,52,40,18,31,25,1,67,54,32,30.34,29.84,28,6,28,0.00
2013-1-20,18,12,7,6,2,-2,71,63,49,30.50,30.33,14,3,14,0.00
2013-1-21,9,4,-3,-2,-7,-16,71,58,52,30.57,30.45,20,6,20,0.00
2013-1-22,18,11,3,1,-4,-7,63,52,40,30.55,30.38,10,1,10,0.00
2013-1-23,28,17,5,15,4,-7,67,57,47,30.63,30.26,18,7,18,0.00
2013-1-24,20,11,3,2,-6,-10,58,45,33,30.72,30.30,18,6,18,0.00
2013-1-25,38,25,13,21,11,-2,71,55,44,30.38,30.16,20,6,20,0.00
2013-1-26,37,23,9,12,4,-2,64,46,29,30.44,30.20,17,6,17,0.00
2013-1-27,38,35,32,34,27,12,86,74,42,30.19,29.78,17,5,17,0.01
2013-1-28,50,38,35,46,35,31,87,86,85,29.95,29.59,12,3,12,0.00
2013-1-29,58,39,32,54,34,26,88,83,78,29.72,29.52,20,6,20,0.00
2013-1-30,32,23,14,26,17,6,84,77,67,29.95,29.55,28,12,28,0.00
2013-1-31,14,6,-1,6,-4,-11,71,63,57,30.50,29.96,23,10,23,0.00